[[{"header":{"parameterUnit":"m.s-1","parameterCategory":1,"la1":30.2991,"la2":30.254,"lo1":-89.0895,"lo2":-89.0444,"dy":0.0017,"dx":0.0017,"nx":28,"ny":28,"refTime":"2025-03-22T09:00:00:Z","depth":0,"parameterNumber":2,"parameterNumberName":"U-component_of_WINDS"},"data":[0,0,0,0,0,0,0,0,0,0,0,0,0,0,0,0,0,0,0,0,0,0,0,0,0,0,0,0,0,0,0,0,0,0,0,0,0,0,0,0,0,0,0,0,0,0,0,0,0,0,0,0,0,0,0,0,0,0,0.047,0.0471,0,0.058,0.0581,0.0582,0.0617,0.0616,0.0616,0.0615,0.073,0.0734,0.0737,0,0,0,0,0,0,0,0,0,0,0,0,0,0.0291,0.0294,0.0469,0.0471,0.0472,0.0579,0.0581,0.0582,0.0617,0.0616,0.0616,0.0615,0.0729,0.0733,0.0738,0,0,0,0,0,0,0,0,0,0,0,0,0,0.0381,0.0295,0.0469,0.0502,0.0506,0.0579,0.0581,0.0583,0.0617,0.0616,0.0615,0.0615,0.0728,0.0733,0.0738,0.0787,0,0,0.0754,0.0757,0,0,0,0,0,0,0,0,0.0376,0.0388,0.0496,0.05,0.0505,0.0584,0.056,0.0651,0.0617,0.0575,0.0615,0.0614,0.0682,0.0691,0.0714,0.0792,0.0797,0.0755,0.0758,0.076,0.0762,0,0,0,0,0,0,0,0.037,0.0383,0.0513,0.0498,0.0503,0.0512,0.0524,0.0578,0.0632,0.0579,0.0581,0.0594,0.0685,0.0708,0.0717,0.0799,0.0755,0.0759,0.0763,0.0765,0.0922,0.0923,0,0,0,0,0,0,0.0358,0.0378,0.051,0.0516,0.0437,0.0516,0.0529,0.0559,0.0631,0.0641,0.0594,0.0595,0.07,0.071,0.0721,0.0782,0.076,0.0765,0.0768,0.0921,0.0923,0.0924,0,0,0,0,0,0,0.0354,0.0369,0.0505,0.0448,0.0466,0.052,0.0553,0.0562,0.0586,0.0643,0.0653,0.0609,0.07,0.0713,0.077,0.0787,0.0768,0.0773,0.092,0.0922,0.0923,0.0906,0,0,0,0,0,0,0.0349,0.0368,0.0386,0.0448,0.0469,0.0552,0.0554,0.0564,0.0595,0.0596,0.0659,0.0669,0.07,0.0762,0.0775,0.0794,0.0777,0.0919,0.0921,0.0923,0.0905,0.0906,0.0907,0,0,0,0,0,0.0342,0.0377,0.0387,0.0403,0.0493,0.0553,0.0565,0.0599,0.0596,0.0615,0.0652,0.0667,0.0783,0.0767,0.0783,0.0803,0.0918,0.092,0.0923,0.0904,0.0906,0.0907,0,0,0,0,0,0,0.0317,0.0386,0.0397,0.0454,0.0497,0.0558,0.0584,0.06,0.0645,0.0645,0.0686,0.07,0.0754,0.0784,0.0766,0.0854,0.0851,0.0857,0.0832,0.0834,0.0835,0.0827,0.0781,0,0,0,0,0,0.0318,0.0359,0.0418,0.0462,0.0483,0.0529,0.0557,0.0579,0.0626,0.0645,0.0686,0.0731,0.0778,0.0808,0.0854,0.0909,0.0924,0.0931,0.0932,0.0933,0.0937,0.0969,0.0973,0.0931,0.0931,0.0931,0,0,0.032,0.0363,0.0387,0.0458,0.0494,0.0537,0.0545,0.059,0.0622,0.0652,0.0707,0.0739,0.0793,0.0849,0.0876,0.0876,0.0952,0.0936,0.0936,0.094,0.0972,0.0976,0.0979,0.0933,0.0932,0.0932,0,0,0.0346,0.0383,0.0423,0.0459,0.0514,0.0544,0.0554,0.0613,0.0635,0.0691,0.0714,0.0754,0.0833,0.087,0.0899,0.0939,0.0954,0.0953,0.0959,0.099,0.0993,0.0996,0.101,0.1015,0.0957,0.0957,0.0957,0,0.0342,0.0407,0.0442,0.0486,0.0517,0.0545,0.0586,0.062,0.0686,0.0707,0.0706,0.0806,0.0844,0.0909,0.0919,0.0942,0.0954,0.0946,0.099,0.0993,0.0997,0.101,0.1016,0.0956,0.0956,0.0956,0.0956,0,0.04,0.0445,0.0471,0.0534,0.0568,0.061,0.0652,0.0682,0.0701,0.0732,0.0789,0.0836,0.0891,0.0909,0.0929,0.0977,0.0975,0.0981,0.0979,0.0999,0.1013,0.1019,0.0955,0.0956,0.0956,0.0956,0,0,0.0414,0.0495,0.0504,0.0533,0.0594,0.063,0.0674,0.0728,0.0752,0.0798,0.0836,0.0902,0.0908,0.0941,0.0965,0.0992,0.102,0.0995,0.0997,0.0998,0.1076,0.107,0.1076,0.1031,0.1032,0.1033,0.1071,0,0.0448,0.0526,0.0559,0.0623,0.0665,0.0691,0.073,0.0772,0.0802,0.0842,0.0876,0.0922,0.0926,0.0947,0.0974,0.1011,0.1036,0.1009,0.1067,0.1069,0.1052,0.1083,0.1078,0.1112,0.1077,0.1078,0.1079,0,0.0498,0.0542,0.061,0.0666,0.0685,0.0719,0.077,0.0809,0.0857,0.0877,0.0914,0.0936,0.0984,0.0979,0.1045,0.1025,0.1051,0.1073,0.1075,0.1082,0.1075,0.1091,0.1124,0.1129,0.1087,0.1087,0.1086,0,0.05,0.0577,0.0628,0.0652,0.0719,0.0742,0.0771,0.0819,0.0849,0.0894,0.0914,0.0965,0.0993,0.1032,0.1068,0.1061,0.1131,0.1128,0.1149,0.1148,0.1162,0.1161,0.12,0.1179,0.1179,0.1179,0.1179,0,0.0535,0.0575,0.063,0.0661,0.0707,0.0744,0.0789,0.082,0.0862,0.09,0.0927,0.0962,0.1007,0.1049,0.1077,0.1127,0.114,0.1158,0.1165,0.1155,0.1153,0.1173,0.1171,0.118,0.118,0.118,0.1179,0,0.0546,0.0584,0.0641,0.0699,0.0715,0.0746,0.0797,0.0828,0.0859,0.0907,0.092,0.0969,0.1019,0.1058,0.1123,0.1143,0.1195,0.1204,0.1179,0.1182,0.12,0.1198,0.1253,0.1262,0.1235,0.1236,0.1236,0,0.0565,0.0597,0.0658,0.0685,0.0714,0.0757,0.0788,0.0826,0.0857,0.0914,0.0939,0.099,0.1033,0.1111,0.1153,0.1203,0.1212,0.1228,0.122,0.1209,0.1212,0.121,0.1213,0.1229,0.1229,0.1229,0.1229,0,0.0595,0.0613,0.0655,0.0705,0.074,0.0781,0.0823,0.0844,0.0889,0.0923,0.0973,0.1007,0.1073,0.1123,0.1177,0.1208,0.1227,0.1231,0.1239,0.1229,0.1213,0.1222,0.1181,0.123,0.123,0.123,0.123,0.123,0.0611,0.064,0.0688,0.0735,0.077,0.0808,0.084,0.0875,0.0918,0.0974,0.0994,0.1046,0.1094,0.1168,0.1199,0.1241,0.1242,0.1253,0.1256,0.1258,0.1256,0.1207,0.1251,0.1251,0.1251,0.1251,0.1251,0,0.0643,0.0675,0.0717,0.0774,0.0811,0.0824,0.0871,0.0901,0.0946,0.0989,0.103,0.1088,0.1137,0.1183,0.1234,0.1259,0.1268,0.1271,0.127,0.1276,0.1252,0.1241,0.1262,0.1262,0.1262,0.1262,0.1262,0.1262,0.0663,0.0713,0.0736,0.0804,0.0836,0.0886,0.0912,0.0947,0.0981,0.1045,0.1085,0.1114,0.1158,0.1213,0.1259,0.1271,0.1289,0.1289,0.1303,0.128,0.1278,0.1277,0.1266,0.1293,0.1293,0.1324,0.1324,0.1325]},{"header":{"parameterUnit":"m.s-1","parameterCategory":1,"la1":30.2991,"la2":30.254,"lo1":-89.0895,"lo2":-89.0444,"dy":0.0017,"dx":0.0017,"nx":28,"ny":28,"refTime":"2025-03-22T09:00:00:Z","depth":0,"parameterNumber":3,"parameterNumberName":"V-component_of_WINDS"},"data":[0,0,0,0,0,0,0,0,0,0,0,0,0,0,0,0,0,0,0,0,0,0,0,0,0,0,0,0,0,0,0,0,0,0,0,0,0,0,0,0,0,0,0,0,0,0,0,0,0,0,0,0,0,0,0,0,0,0,4.0885,4.0886,0,4.0903,4.0903,4.0903,4.0776,4.0772,4.0768,4.0765,4.0784,4.0788,4.0792,0,0,0,0,0,0,0,0,0,0,0,0,0,4.0744,4.0747,4.0885,4.0886,4.0886,4.0903,4.0903,4.0903,4.0776,4.0772,4.0767,4.0763,4.0783,4.0788,4.0792,0,0,0,0,0,0,0,0,0,0,0,0,0,4.0788,4.0748,4.0885,4.0824,4.0819,4.0903,4.0903,4.0903,4.0777,4.0772,4.0766,4.0761,4.0782,4.0787,4.0793,4.0936,0,0,4.0811,4.0813,0,0,0,0,0,0,0,0,4.0785,4.0793,4.0833,4.0829,4.0823,4.0831,4.086,4.0914,4.0778,4.0793,4.0765,4.0759,4.0805,4.0808,4.0823,4.0937,4.0938,4.0811,4.0815,4.0817,4.0819,0,0,0,0,0,0,0,4.0783,4.0792,4.0892,4.0834,4.0828,4.0797,4.0797,4.087,4.0829,4.0791,4.0782,4.0786,4.0801,4.0818,4.0823,4.0938,4.0811,4.0816,4.082,4.0822,4.1171,4.1177,0,0,0,0,0,0,4.0788,4.079,4.0892,4.0893,4.0791,4.0804,4.0804,4.0834,4.0828,4.0821,4.079,4.078,4.0811,4.0816,4.0823,4.0991,4.0817,4.0822,4.0826,4.1166,4.1173,4.1179,0,0,0,0,0,0,4.0785,4.0798,4.0891,4.0839,4.0848,4.0812,4.0847,4.0837,4.0854,4.0827,4.0819,4.0816,4.0807,4.0815,4.0909,4.099,4.0825,4.083,4.1159,4.1168,4.1176,4.1328,0,0,0,0,0,0,4.0781,4.0798,4.0851,4.0841,4.0852,4.0977,4.0852,4.0842,4.0864,4.0851,4.0848,4.0843,4.0803,4.0901,4.0915,4.0995,4.0835,4.1151,4.1163,4.1173,4.1316,4.1341,4.1363,0,0,0,0,0,4.0777,4.0894,4.0855,4.0868,4.0918,4.0982,4.0988,4.0939,4.0871,4.0926,4.0908,4.0843,4.0979,4.0912,4.0926,4.1009,4.1146,4.116,4.1172,4.1305,4.1336,4.1362,0,0,0,0,0,0,4.0915,4.0891,4.0848,4.0964,4.0976,4.096,4.1027,4.0973,4.1005,4.0991,4.0929,4.093,4.1035,4.1031,4.0957,4.1148,4.1051,4.1067,4.1147,4.1176,4.1199,4.1198,4.084,0,0,0,0,0,4.0958,4.1012,4.0988,4.1094,4.1102,4.1064,4.109,4.1051,4.1061,4.1065,4.1054,4.1067,4.1112,4.1144,4.1184,4.1314,4.1312,4.1378,4.1402,4.1421,4.1437,4.1507,4.1536,4.1222,4.1222,4.1222,0,0,4.105,4.1044,4.1081,4.1121,4.1126,4.1183,4.1069,4.1134,4.1176,4.1075,4.1164,4.1157,4.1166,4.128,4.1329,4.128,4.1523,4.1438,4.1454,4.1458,4.1523,4.1553,4.1579,4.1231,4.1229,4.1228,0,0,4.1246,4.1246,4.1334,4.1341,4.1349,4.1323,4.1345,4.1337,4.1328,4.1416,4.1342,4.1392,4.1471,4.1481,4.1497,4.1698,4.164,4.1713,4.1836,4.1904,4.1929,4.1951,4.2024,4.2051,4.1728,4.1728,4.1728,0,4.1359,4.1442,4.1387,4.1457,4.1478,4.1389,4.1478,4.1488,4.1509,4.1526,4.147,4.1568,4.1568,4.1683,4.1733,4.1748,4.1771,4.1713,4.193,4.1951,4.1971,4.2039,4.2067,4.1737,4.1736,4.1735,4.1734,0,4.1581,4.164,4.171,4.1733,4.1761,4.1841,4.1799,4.1834,4.1793,4.1773,4.1865,4.1862,4.19,4.1924,4.1885,4.2035,4.2004,4.194,4.1841,4.201,4.2074,4.21,4.175,4.1747,4.1744,4.1742,0,0,4.1864,4.1856,4.1883,4.1893,4.1895,4.194,4.2016,4.2054,4.2086,4.2103,4.2167,4.2236,4.2177,4.2195,4.2156,4.2217,4.2378,4.2145,4.2144,4.219,4.2544,4.2593,4.2624,4.2338,4.2343,4.2347,4.2543,0,4.2057,4.2186,4.2139,4.2272,4.2327,4.2243,4.2309,4.2319,4.2303,4.2347,4.2328,4.2379,4.2296,4.2307,4.2363,4.2346,4.2448,4.2331,4.2398,4.2401,4.2399,4.2657,4.2709,4.2894,4.2568,4.2572,4.2575,0,4.2299,4.2326,4.2465,4.2459,4.248,4.2541,4.2572,4.2615,4.2624,4.2608,4.2629,4.2577,4.2652,4.2553,4.2656,4.2577,4.2602,4.2598,4.2604,4.2609,4.2499,4.2671,4.2952,4.2981,4.2613,4.261,4.2607,0,4.2494,4.2565,4.2658,4.2669,4.2664,4.2709,4.2709,4.2712,4.2738,4.2765,4.2782,4.2818,4.2838,4.2867,4.2827,4.2758,4.2936,4.2833,4.2926,4.2928,4.2968,4.2967,4.3259,4.2982,4.2982,4.2981,4.2981,0,4.2714,4.2803,4.2745,4.2803,4.2899,4.2845,4.2942,4.2933,4.2937,4.2992,4.2921,4.2974,4.2917,4.2964,4.2933,4.3024,4.3033,4.3023,4.3014,4.303,4.3032,4.3046,4.3033,4.2989,4.2987,4.2986,4.2984,0,4.2949,4.2914,4.3009,4.2997,4.2996,4.3068,4.3058,4.3111,4.3089,4.3159,4.3172,4.3139,4.3191,4.3153,4.3205,4.3184,4.3305,4.3277,4.3302,4.3295,4.339,4.3382,4.3703,4.3743,4.344,4.3443,4.3445,0,4.3092,4.3159,4.3154,4.3185,4.319,4.3241,4.3267,4.3216,4.3246,4.3262,4.3313,4.3359,4.3393,4.3481,4.3462,4.3501,4.3475,4.3584,4.348,4.3495,4.3478,4.3475,4.3482,4.3606,4.361,4.3613,4.3615,0,4.3352,4.3331,4.3371,4.3407,4.344,4.3465,4.3484,4.3514,4.3462,4.3499,4.3552,4.3579,4.3632,4.3679,4.3712,4.3712,4.3656,4.3648,4.3671,4.3689,4.3702,4.3698,4.3361,4.3641,4.3638,4.3636,4.3635,4.3634,4.3546,4.3601,4.3607,4.3654,4.3663,4.3683,4.3733,4.3717,4.376,4.3799,4.3766,4.383,4.3838,4.3876,4.3883,4.3933,4.3888,4.3922,4.3931,4.394,4.3954,4.3693,4.3938,4.3937,4.3937,4.3936,4.3935,0,4.3803,4.3802,4.3846,4.3876,4.3914,4.3857,4.3875,4.3911,4.3967,4.3979,4.4015,4.4076,4.4121,4.4106,4.4146,4.4189,4.4164,4.4201,4.4198,4.42,4.3992,4.3968,4.4221,4.4221,4.4221,4.4221,4.4221,4.422,4.3941,4.4032,4.4013,4.4108,4.4106,4.4168,4.4184,4.4202,4.4211,4.4283,4.432,4.4309,4.4311,4.4351,4.4391,4.4385,4.4404,4.4451,4.4436,4.4242,4.4214,4.4187,4.4164,4.4455,4.4455,4.464,4.4642,4.4643]}]]